Location: Newark
(44.3449°N, 4.8694°E)
Time: 11:36:47
(UTC+00:00)

Envisat - Pass Details

Date: 25 January 2020
Orbit: 764 x 766 km, 98.1° (Epoch: 23 February)

Event Time Altitude Azimuth Distance (km) Brightness Sun altitude
Rises 06:11:08 0° 16° (NNE) 3,242 6.2 -10.0°
Reaches altitude 10° 06:13:28 10° 19° (NNE) 2,311 5.5 -9.6°
Maximum altitude 06:18:32 63° 101° (E) 851 3.6 -8.8°
Drops below altitude 10° 06:23:33 10° 183° (S) 2,294 5.7 -7.9°
Sets 06:25:51 0° 186° (S) 3,215 6.4 -7.5°
